Location: Newark
(5.8900°S, 42.6378°W)
Time: 04:26:23
(UTC+00:00)

X-37B - Pass Details

Date: 28 September 2020
Orbit: 382 x 392 km, 45.0° (Epoch: 15 October)

Event Time Altitude Azimuth Distance (km) Brightness Sun altitude
Rises 08:03:22 0° 350° (N) 2,238 4.3 -9.1°
Reaches altitude 10° 08:06:19 10° 20° (NNE) 1,394 3.6 -8.4°
Maximum altitude 08:07:47 13° 48° (NE) 1,252 3.8 -8.0°
Drops below altitude 10° 08:09:15 10° 76° (ENE) 1,401 4.8 -7.7°
Sets 08:12:14 0° 107° (ESE) 2,263 6.4 -6.9°
